Location: Austin
(30.3000°N, 97.7500°W)
Time: 07:31:54
(UTC-06:00)

DELTA 2 R/B (1) - Pass Details

Date: 10 January 2026
Orbit: 787 x 800 km, 39.6° (Epoch: 22 January)

Event Time Altitude Azimuth Distance (km) Brightness Sun altitude
Rises 19:47:06 0° 228° (SW) 3,273 7.7 -25.0°
Reaches altitude 10° 19:49:37 10° 224° (SW) 2,343 6.7 -25.6°
Enters shadow 19:54:44 57° 161° (SSE) 924 3.8 -26.6°
